Wind_Speed
40 36 36 40 45 49 50 48 43 38 36 34 34 34 36 37 37 37 37 37 37 38 41 44 46 46 45 44 44 43 42 41 40 39 38 36 36 37 38 39 38 36 34 32 32 32 32 33 35 36 36 37 37 36 35 34 34 34 34 33 33 34 34 35 36 38 39 41 42 43 43 42 42 41 41 43 46 48 49 47 45 43 42 42 41 40
38 35 34 37 42 48 51 50 45 41 39 36 34 33 34 35 37 38 38 39 40 40 42 44 45 45 42 40 40 42 41 41 40 39 37 36 37 37 38 38 37 34 32 31 30 31 31 33 34 36 36 37 37 37 36 35 35 34 34 35 35 36 36 37 38 39 40 40 41 41 42 42 41 41 41 43 46 48 48 47 45 43 43 42 41 40
33 32 30 32 36 43 48 50 48 46 45 43 41 39 37 37 37 37 38 39 40 41 42 42 41 39 38 38 40 42 42 41 40 38 37 36 37 38 38 38 36 33 31 30 30 30 32 33 35 37 37 38 38 38 38 37 37 37 37 37 37 37 38 39 39 40 40 40 39 40 41 42 42 41 41 42 45 47 48 47 45 44 43 41 40 40
28 27 26 26 28 33 39 44 46 47 48 48 48 47 46 44 41 39 37 37 38 39 40 39 37 36 37 39 41 42 43 42 41 39 38 37 37 37 37 36 35 33 32 32 31 32 33 35 37 39 39 40 39 39 40 40 40 40 40 40 39 39 39 39 40 39 38 37 37 39 42 44 43 41 41 42 44 46 48 47 46 44 42 40 39 39
23 23 22 21 22 24 28 32 36 41 45 48 50 52 52 51 49 46 43 40 40 40 40 38 37 36 38 40 42 42 42 42 42 41 40 39 38 37 36 35 34 34 34 35 35 35 36 38 40 41 42 42 42 42 41 42 42 43 43 42 41 40 40 40 40 38 37 35 37 40 44 45 44 41 41 42 44 46 48 47 46 44 42 40 40 40
21 21 21 21 21 21 22 23 25 29 33 37 42 45 47 48 48 48 46 44 43 42 42 41 39 39 39 40 40 40 40 40 41 42 42 42 41 40 37 35 34 34 35 36 37 38 39 40 41 43 44 44 44 43 43 43 45 46 46 44 42 42 42 41 40 38 36 35 38 43 47 47 45 43 42 43 45 47 48 48 47 45 43 42 41 41
21 22 22 23 23 23 23 23 23 23 24 26 28 30 33 35 37 38 39 40 40 40 41 40 39 39 39 39 38 38 38 38 39 41 43 44 44 43 41 37 35 34 34 35 36 37 38 40 41 43 44 44 45 45 45 47 49 50 49 47 45 44 43 43 41 39 36 36 40 46 50 51 50 47 46 46 47 48 48 48 48 46 45 44 43 42
21 22 23 24 24 25 25 25 24 24 24 23 23 24 25 26 28 29 31 32 34 35 36 36 36 36 36 36 37 37 37 38 39 41 42 44 45 45 43 40 37 35 35 35 35 36 37 38 39 41 42 43 44 46 49 52 55 56 53 50 47 46 45 44 41 39 37 39 44 50 54 55 54 52 50 48 48 48 48 48 48 47 47 46 45 43
20 21 23 23 24 24 25 25 25 25 25 25 26 26 26 26 26 27 28 30 31 32 33 33 33 33 34 34 35 36 38 39 40 41 42 43 44 45 44 42 39 37 37 36 36 36 36 37 37 38 39 41 43 47 52 57 60 60 56 52 49 47 46 44 41 39 39 41 47 54 57 58 56 54 52 49 48 47 47 47 47 47 47 46 44 42
21 21 22 23 23 24 24 25 26 26 27 27 28 29 29 28 28 29 29 31 32 32 32 32 32 32 33 34 35 36 38 39 39 40 41 42 43 44 43 42 40 39 38 37 37 36 36 36 36 36 37 39 42 48 54 59 61 60 56 52 49 47 44 43 42 41 41 44 49 55 58 58 57 54 51 49 47 47 47 47 47 47 46 45 42 40
21 22 22 22 23 23 24 25 26 27 28 29 30 31 31 31 31 31 31 32 32 32 32 32 33 33 34 35 36 37 37 38 39 39 40 41 41 42 42 41 40 39 38 37 37 36 35 35 35 35 36 39 44 49 55 58 58 56 53 50 47 45 43 43 43 43 43 46 50 55 58 58 56 53 50 48 47 47 48 48 48 48 46 44 42 39
23 23 23 23 24 24 24 25 27 28 29 30 31 32 32 33 33 33 33 33 33 33 32 33 33 34 34 35 36 36 37 37 38 38 39 39 40 41 41 41 40 39 38 37 36 35 34 34 34 35 37 41 46 51 53 54 53 51 48 46 44 43 43 44 45 45 45 47 50 54 56 57 56 53 50 49 48 48 49 49 49 48 46 44 42 40
26 25 25 25 25 25 26 26 27 28 29 30 31 32 32 33 33 33 33 33 33 33 32 32 33 34 34 34 35 35 35 36 36 37 37 38 39 40 40 40 40 39 38 37 36 35 34 34 34 36 39 44 48 50 50 50 49 48 46 43 42 43 44 46 46 46 46 48 50 52 54 55 54 52 50 49 48 48 49 49 49 48 46 45 43 41
29 29 28 28 28 28 27 28 28 29 30 31 31 32 32 33 33 33 33 33 33 33 33 33 33 33 33 33 34 34 34 34 35 35 36 37 39 40 40 40 40 39 38 38 37 36 35 35 36 38 41 45 47 48 48 48 48 47 45 44 43 44 45 46 46 46 46 47 49 50 51 52 52 50 49 48 48 48 48 49 48 48 47 45 44 42
32 32 31 31 31 30 30 30 30 30 31 31 31 32 33 33 34 34 33 33 34 34 33 33 33 33 33 33 33 33 34 34 34 35 35 37 38 39 40 40 40 40 39 39 38 38 38 38 39 41 43 45 46 47 47 47 47 46 45 45 45 45 46 45 45 45 45 46 47 49 49 50 50 49 48 47 46 47 47 47 48 47 47 45 44 43
34 33 34 34 33 33 32 32 32 32 32 31 31 32 33 33 34 34 33 33 34 34 33 33 33 33 33 34 34 34 34 34 34 35 35 36 37 38 39 39 39 39 39 39 39 40 41 41 43 44 45 46 46 46 46 46 46 45 45 46 46 46 45 44 44 44 45 46 47 48 48 48 48 47 46 46 46 46 46 47 47 47 46 45 43 42
34 34 34 34 34 34 34 34 33 33 33 32 32 32 33 33 34 33 33 33 33 32 32 31 31 31 32 33 34 34 34 34 35 35 35 36 37 37 38 38 38 38 38 39 40 42 43 44 45 45 46 45 45 44 44 44 45 45 45 46 46 45 44 44 44 44 45 46 47 48 48 48 48 47 46 46 46 46 46 46 46 45 44 42 41 40
33 33 34 34 34 34 34 34 34 34 33 33 33 33 33 33 33 33 32 31 30 30 29 29 29 29 29 31 32 33 34 34 35 36 36 36 36 37 37 37 37 38 38 39 40 42 43 44 44 43 43 42 42 42 43 43 44 44 45 45 45 44 44 44 45 45 46 47 48 48 48 48 48 48 47 47 46 46 46 45 44 43 41 39 38 37
31 32 32 32 33 33 33 33 33 33 33 33 33 33 32 33 32 31 31 29 28 27 26 26 26 26 27 29 31 32 32 34 35 36 36 36 36 37 37 37 37 38 38 39 41 42 43 44 44 43 42 41 41 42 42 43 44 44 45 45 45 44 44 45 46 46 47 48 48 49 49 49 49 48 48 47 46 45 44 42 40 38 36 35 34 34
30 30 30 31 31 31 32 32 33 32 32 32 32 31 31 31 30 30 29 28 27 26 25 24 24 25 25 27 29 30 31 32 34 35 36 36 37 37 38 38 39 39 40 41 42 44 45 46 47 46 46 45 45 45 44 44 44 44 44 44 44 44 45 45 46 46 47 47 47 48 48 48 47 47 46 45 43 42 40 38 36 34 33 32 31 30
30 30 30 30 29 29 30 31 31 31 30 30 29 29 29 29 28 28 28 27 26 26 25 25 25 25 25 26 28 29 29 30 32 34 35 36 37 38 39 39 40 41 42 43 44 45 47 48 49 49 49 48 47 46 45 44 44 43 43 43 43 43 43 43 43 43 43 44 44 44 44 43 43 42 41 39 38 37 36 34 33 32 31 30 29 27
28 28 29 28 27 27 27 28 28 28 28 27 26 26 27 26 26 26 27 26 26 26 26 26 26 26 25 26 27 28 28 29 31 33 33 35 36 37 38 39 41 43 44 45 45 46 47 47 48 47 46 45 44 43 41 40 40 39 39 39 39 38 38 38 37 37 37 37 37 37 37 37 36 36 36 35 35 34 34 33 32 30 30 28 27 26
25 24 24 24 24 25 25 24 24 25 25 25 24 24 24 24 24 25 25 25 25 25 25 25 25 25 25 25 26 27 27 28 29 31 31 32 34 35 36 37 39 42 43 43 43 43 43 43 42 41 39 38 36 35 34 33 33 33 32 32 31 31 30 30 30 30 30 31 31 32 32 33 34 34 35 35 34 34 33 32 30 29 28 27 26 25
20 20 20 20 21 22 23 23 22 23 23 23 23 23 23 23 23 24 24 23 23 24 24 24 23 24 24 25 25 25 26 27 27 28 28 28 29 30 31 32 34 36 37 36 35 35 35 35 33 32 30 30 29 28 28 27 27 27 27 27 26 26 27 27 27 28 29 30 31 32 33 35 35 36 36 36 34 33 32 31 29 28 27 26 24 24
17 17 17 18 20 21 22 22 22 22 21 22 22 22 22 22 23 23 23 23 23 23 23 22 22 22 22 22 22 23 23 24 23 23 24 24 24 25 25 25 26 27 28 28 27 26 27 27 26 26 25 25 26 26 27 27 27 27 28 28 29 29 30 30 31 32 32 33 34 35 36 37 37 37 36 35 34 32 31 30 28 27 25 24 23 23
16 17 17 18 20 21 21 21 21 21 21 21 22 23 23 23 23 23 23 23 23 22 22 22 22 23 22 21 21 22 23 22 22 22 22 23 23 23 23 22 23 24 25 25 24 24 24 25 26 27 27 28 29 29 30 31 32 32 33 33 34 34 34 35 35 35 36 36 37 37 37 37 37 36 34 33 32 31 29 28 26 24 23 22 22 23
18 18 19 20 21 22 22 21 21 21 21 22 23 24 24 24 24 24 24 24 24 23 23 24 24 25 24 23 24 24 24 24 23 24 24 24 24 25 25 24 24 25 26 27 27 27 27 29 30 31 31 32 32 33 34 34 35 35 35 36 36 36 36 36 36 36 36 36 36 36 36 35 34 33 32 31 30 28 26 24 23 22 22 22 23 24
20 20 21 22 23 23 22 22 21 21 22 22 23 24 24 23 23 23 24 25 24 23 24 25 26 25 24 24 25 26 25 25 25 26 25 25 26 27 27 26 26 27 29 30 30 30 30 31 32 33 33 33 34 34 35 35 35 35 35 35 35 35 35 35 35 35 35 35 34 34 34 33 32 31 29 28 26 24 23 22 22 22 23 23 24 25
21 22 22 24 24 24 23 22 21 21 22 22 23 23 23 22 22 23 24 23 22 22 24 25 25 24 24 24 25 25 25 25 26 26 25 25 27 28 28 27 27 28 29 30 30 31 31 32 33 33 33 33 34 34 34 34 34 34 34 34 33 33 33 33 33 33 33 33 33 32 31 30 29 28 26 24 23 22 22 22 22 23 23 24 25 26
22 22 23 24 24 24 23 22 21 21 21 22 22 22 22 21 22 23 23 22 22 22 24 25 24 24 24 24 24 25 25 26 26 25 24 25 27 29 28 27 27 28 29 29 30 30 31 32 32 31 32 32 33 33 32 32 32 32 32 32 32 32 32 32 32 32 31 31 31 30 29 27 26 25 23 22 22 22 22 22 23 23 24 25 26 26
22 22 23 23 24 23 22 22 22 22 22 22 22 22 22 22 22 23 23 22 22 23 24 25 24 24 24 24 24 25 25 26 25 25 24 26 28 29 28 26 27 29 29 29 29 30 31 31 31 30 30 31 32 32 31 31 31 31 31 31 31 31 31 30 30 30 30 29 28 27 26 25 23 22 22 21 21 22 22 23 24 24 25 26 27 27
23 23 23 23 23 23 23 22 22 22 22 23 23 23 23 23 23 23 23 23 23 23 24 25 25 25 25 25 25 26 26 26 25 25 25 27 29 29 28 26 27 29 29 29 28 29 30 30 30 29 29 30 31 31 31 30 30 30 30 30 30 30 29 29 28 28 28 27 26 24 23 22 22 21 21 21 22 22 23 24 24 25 26 26 27 28
23 23 23 23 23 23 23 23 23 23 24 24 24 24 24 24 24 24 24 24 24 23 24 24 25 25 25 25 26 27 27 27 26 25 25 26 28 29 28 26 27 28 28 28 28 28 29 29 29 29 29 30 30 30 30 30 29 29 29 29 28 28 28 27 26 26 26 24 23 22 22 21 21 21 22 22 23 23 24 24 25 26 26 27 28 29
24 24 24 24 24 24 24 24 24 25 25 25 25 26 26 26 25 25 25 24 24 23 23 23 24 24 24 25 25 26 26 26 26 25 24 25 27 28 27 26 26 27 27 27 27 27 28 28 28 28 28 29 29 29 29 29 28 28 28 27 27 27 26 25 25 24 24 23 22 21 21 21 21 22 22 23 23 24 25 25 26 27 27 28 29 29
24 25 25 25 25 25 25 25 26 26 26 26 27 27 27 26 26 25 25 24 24 23 23 23 23 23 23 23 23 24 25 25 24 23 23 24 25 26 26 25 25 26 26 26 27 26 26 27 28 27 27 28 28 28 28 27 27 27 27 26 26 25 25 24 23 23 23 22 22 21 21 22 22 23 23 24 24 25 25 26 27 27 28 28 29 30
25 25 26 26 26 26 26 26 27 27 27 27 27 27 27 27 26 26 25 24 23 23 22 22 22 21 21 22 22 23 23 23 23 22 22 23 24 25 24 25 25 25 25 26 26 26 25 26 26 27 26 26 26 27 26 26 26 26 26 26 24 23 23 23 22 22 22 22 22 22 22 22 23 24 24 25 25 26 26 27 27 28 28 29 30 30
25 25 26 26 26 26 27 27 27 27 27 27 27 27 26 26 25 25 24 23 23 22 22 22 21 21 21 21 22 22 23 23 22 22 22 23 23 23 24 24 24 24 24 25 25 25 25 25 25 26 25 25 25 25 25 25 24 25 25 25 24 23 23 22 22 22 22 23 23 23 23 24 24 25 25 26 26 27 27 28 28 28 29 30 30 31
25 25 25 25 26 26 26 27 27 27 27 26 26 26 25 24 24 23 23 22 22 22 21 21 21 21 22 22 22 23 23 23 22 22 22 22 22 23 23 24 24 23 23 24 24 25 25 24 24 24 24 24 24 24 24 24 23 24 24 24 24 23 23 23 23 23 23 24 24 25 25 25 26 26 27 27 27 27 28 28 29 29 29 30 31 31
25 25 25 25 25 26 26 26 26 26 26 26 25 25 24 23 23 22 22 21 21 21 21 21 21 22 22 22 23 23 24 23 23 22 22 22 22 22 23 23 23 23 22 23 23 24 24 24 24 24 23 23 23 23 23 23 23 23 24 24 24 24 24 24 24 24 25 25 25 26 26 27 27 27 28 28 28 28 28 29 29 29 29 30 31 31
25 25 25 25 25 25 25 25 26 26 26 25 25 25 24 23 22 22 22 21 21 21 21 22 22 22 22 23 23 24 24 24 24 23 23 23 23 23 23 23 23 23 23 22 23 23 23 24 24 23 23 23 23 23 23 23 24 24 24 25 25 25 25 24 25 26 26 27 27 27 28 28 28 28 29 29 29 29 29 29 29 29 30 30 31 31
24 24 25 25 25 25 25 25 25 25 25 25 25 25 24 23 23 22 22 22 22 22 22 22 23 23 23 23 24 24 24 24 25 25 24 24 24 24 24 24 24 24 23 23 23 23 23 24 24 24 23 23 24 24 24 24 24 24 25 25 26 26 26 25 26 27 27 28 28 29 29 29 29 29 29 29 29 29 29 29 29 30 30 30 31 31
23 24 24 24 24 24 24 25 25 25 25 25 25 25 25 24 24 23 23 23 23 23 23 23 24 24 24 24 24 24 25 25 25 26 26 26 25 25 25 25 25 25 25 25 25 25 25 24 25 25 25 24 24 25 25 25 25 25 25 26 27 27 27 27 27 28 28 29 30 30 30 30 30 30 30 29 29 29 29 29 30 30 30 31 31 31
23 23 23 24 24 24 24 25 25 25 25 26 26 26 26 26 25 25 25 24 24 24 24 25 25 25 25 25 25 25 25 26 26 26 26 26 26 26 26 26 26 25 25 26 26 26 26 26 26 26 26 26 25 26 26 26 26 26 26 27 27 28 28 29 28 29 29 30 31 31 31 31 31 30 30 29 29 29 29 29 30 30 31 31 31 31
23 23 23 23 24 24 25 25 25 25 26 26 26 27 27 27 27 27 26 26 26 26 25 26 26 26 26 27 26 26 26 26 27 27 27 27 26 26 26 26 26 25 25 26 26 27 27 27 27 27 27 27 26 26 27 27 27 27 27 27 28 28 29 29 29 29 30 31 31 31 31 31 31 30 30 29 29 29 29 29 30 30 31 31 31 32
23 23 24 24 24 24 25 25 25 25 26 26 27 27 27 27 27 27 27 27 27 27 26 26 26 27 27 27 27 27 27 27 27 27 27 27 26 26 26 25 25 25 25 25 26 26 26 27 27 27 27 27 27 27 27 27 27 27 27 28 28 28 29 30 30 30 30 31 31 31 31 31 31 30 30 29 29 29 29 29 30 30 31 31 32 32
23 24 24 24 24 25 25 25 25 26 26 27 27 27 27 27 27 28 28 28 28 27 27 27 27 28 28 28 28 27 27 27 27 27 27 27 26 26 25 25 25 25 25 25 25 25 26 26 26 26 26 26 27 27 27 27 27 27 28 28 28 29 29 30 30 30 31 31 31 31 31 31 31 30 30 29 29 29 29 29 30 30 31 32 32 33
23 23 23 24 24 24 25 25 25 26 26 27 27 27 27 28 28 28 28 28 28 28 28 28 28 28 29 29 28 28 28 28 28 27 27 27 26 26 25 25 25 25 24 25 25 25 25 26 26 26 26 26 26 26 26 27 27 27 28 28 28 29 30 30 31 31 31 31 31 31 31 30 30 30 29 29 29 29 29 29 30 30 31 32 32 33
21 21 22 22 23 23 24 24 24 25 26 26 27 27 27 28 28 29 29 29 29 29 29 29 29 29 29 29 29 28 28 28 28 27 27 27 26 26 25 25 25 25 25 25 25 25 25 25 25 25 25 25 26 26 26 26 27 27 28 28 29 29 30 31 31 31 31 31 31 30 30 30 29 29 29 29 28 28 29 29 30 30 31 32 32 33
20 20 20 20 21 21 22 22 23 23 24 25 25 26 27 27 27 28 28 29 29 29 29 29 29 29 29 29 28 28 28 28 28 27 27 26 26 25 25 25 24 24 25 25 25 25 25 25 25 25 25 25 25 26 26 26 27 28 28 29 29 30 30 30 31 31 30 30 30 30 29 29 29 29 29 29 28 28 28 29 29 30 31 31 32 33
19 19 19 19 19 20 20 20 20 21 21 22 23 24 24 25 25 26 26 27 27 27 28 28 27 27 27 27 27 27 27 27 27 26 26 25 25 24 24 24 24 24 24 25 25 25 25 25 25 25 25 25 26 26 26 27 27 28 28 29 29 30 30 30 30 30 30 30 29 29 29 29 29 29 29 29 29 28 28 28 28 29 30 31 31 32
19 19 19 19 19 19 19 19 19 19 20 20 21 21 22 22 23 23 24 24 25 25 25 25 25 25 25 25 25 25 25 25 25 25 24 24 24 23 23 24 24 24 24 24 25 25 25 25 25 25 25 26 26 26 27 27 27 28 29 29 29 30 30 30 30 30 29 29 29 29 29 29 29 29 29 29 29 28 28 27 28 28 29 30 31 31
Wind_Direction
243 242 241 239 235 232 228 227 227 231 235 236 235 233 233 234 235 236 236 237 239 241 244 246 247 247 246 245 244 245 246 248 249 248 246 245 246 248 250 251 251 250 251 252 254 256 258 260 262 263 263 263 264 265 266 268 269 270 270 271 271 272 273 274 275 276 276 276 276 275 275 273 271 269 269 270 270 268 267 267 269 272 275 277 279 280
241 240 241 242 239 235 230 227 226 229 234 236 236 235 234 233 234 234 235 236 237 239 241 242 243 243 240 239 240 243 245 246 246 245 244 245 246 248 249 250 249 249 249 250 252 255 259 262 264 265 264 263 263 263 264 266 267 268 268 269 270 271 271 272 273 274 274 275 275 275 275 273 271 268 268 270 270 269 268 268 269 272 274 276 278 278
239 239 242 243 241 237 233 230 230 232 235 238 239 240 239 238 237 235 235 235 235 236 237 238 238 238 237 238 240 243 244 243 242 241 242 244 247 249 251 252 251 251 251 251 253 256 259 262 263 264 263 263 262 263 264 264 265 266 266 266 267 268 268 269 270 271 273 274 274 275 274 273 270 267 266 268 269 270 269 268 269 271 274 275 276 276
240 241 244 244 242 239 235 234 233 235 237 239 240 241 242 243 243 242 240 238 237 236 236 237 238 238 238 240 242 243 242 240 239 238 239 241 245 249 252 253 254 254 254 255 256 258 261 263 264 264 263 263 263 264 265 265 266 266 266 266 267 267 267 267 269 271 273 273 272 271 272 272 270 267 265 266 268 268 268 267 268 270 272 274 275 275
243 244 245 245 244 243 239 236 235 236 237 239 240 241 243 245 246 247 247 245 243 241 240 241 241 241 241 242 242 242 241 239 237 236 237 239 243 247 250 251 252 254 256 258 259 261 263 265 265 265 265 264 265 266 267 268 268 268 267 267 267 267 266 267 269 272 273 270 267 265 268 270 270 268 266 266 266 266 266 266 267 269 271 273 274 274
245 247 248 248 250 251 250 247 244 241 240 240 241 242 243 245 246 247 248 248 248 246 245 245 245 244 244 243 243 243 242 241 239 238 238 239 242 245 248 249 250 253 256 258 260 262 264 266 267 267 267 266 267 268 269 271 272 271 269 267 266 266 266 267 269 272 272 267 263 262 265 269 271 270 269 267 265 264 264 264 266 268 271 272 273 273
251 255 257 259 260 260 261 260 258 255 252 248 246 245 246 246 246 247 248 248 248 248 248 248 248 247 247 247 247 248 248 247 245 243 242 242 243 246 248 249 250 252 255 257 258 260 262 264 266 266 266 267 268 269 271 273 273 272 268 266 265 265 264 266 269 272 272 266 261 260 262 267 270 271 269 266 263 262 262 263 266 268 271 272 272 272
261 263 265 267 268 268 268 267 266 264 261 257 253 251 250 249 248 248 247 247 247 248 248 249 250 250 251 252 253 254 254 254 252 250 248 246 246 247 249 251 252 253 254 255 256 258 259 260 262 263 263 265 266 268 268 269 269 267 265 264 264 264 264 266 269 272 271 266 260 258 258 261 265 267 266 263 261 260 262 264 267 270 272 272 271 270
267 268 269 270 270 270 270 269 267 264 260 256 252 251 251 251 251 251 250 249 249 249 250 250 252 253 255 256 258 258 258 258 257 255 253 251 250 249 250 251 253 254 255 256 256 257 257 258 258 259 260 262 264 263 261 260 260 260 261 262 263 264 264 266 270 273 271 266 260 256 254 255 258 260 261 260 259 260 263 266 269 271 272 272 270 269
267 268 269 269 269 269 268 266 264 261 258 254 251 249 250 251 253 254 254 253 253 253 254 256 257 259 261 262 262 262 261 261 259 258 256 255 254 252 251 252 253 255 256 257 257 258 258 258 258 259 262 264 264 260 255 252 252 255 259 262 263 263 264 268 272 273 271 266 260 255 252 252 253 255 257 258 260 262 265 268 270 272 272 270 269 269
265 265 267 267 267 267 266 264 262 259 257 254 252 251 252 253 254 255 256 256 257 258 259 261 263 264 265 265 265 264 263 262 261 259 258 257 255 254 253 253 254 256 257 258 259 259 260 260 261 263 265 266 263 258 252 250 251 255 259 261 261 260 262 268 272 273 271 267 261 256 253 252 253 254 257 259 261 264 267 269 270 271 270 269 269 271
265 265 265 265 266 266 266 264 263 260 258 256 254 254 255 256 257 257 259 259 260 262 263 265 267 267 267 267 266 265 264 262 261 259 258 257 255 254 253 254 256 257 258 259 260 260 261 261 263 265 265 263 259 254 251 251 253 256 258 258 257 257 260 266 270 271 270 266 262 258 254 253 254 255 258 260 263 265 267 269 269 269 268 268 269 272
266 267 266 266 266 267 266 266 265 263 261 260 258 257 257 258 259 259 260 262 263 264 266 268 268 268 268 267 266 265 264 262 261 260 258 257 255 255 255 256 257 258 259 260 261 261 261 261 262 262 261 257 253 250 250 252 254 255 255 254 254 256 259 264 267 269 268 265 261 258 255 254 255 257 259 262 264 266 267 268 268 268 267 267 269 273
267 268 269 269 269 268 268 268 268 267 266 264 263 261 260 260 260 260 261 263 264 265 267 268 268 268 268 267 266 265 264 263 262 261 260 259 258 258 258 258 259 259 259 260 260 260 259 259 259 258 255 252 249 248 249 251 253 253 252 251 253 256 260 264 266 266 265 262 259 257 255 255 256 258 261 263 264 266 267 267 267 266 266 268 271 274
265 268 270 271 271 270 270 269 269 269 268 267 266 265 263 262 261 261 262 263 263 264 265 266 266 267 267 266 265 265 265 264 264 263 263 262 261 261 260 260 259 259 259 258 258 257 256 255 253 251 249 247 246 247 249 251 251 251 251 252 255 258 261 263 264 263 261 259 256 255 255 256 258 260 262 263 264 265 266 266 266 266 266 269 272 275
263 265 267 269 270 270 270 270 269 269 269 269 268 267 265 264 262 262 261 261 261 262 262 263 264 265 265 265 264 264 265 265 264 264 263 262 261 261 260 259 258 258 257 256 255 254 252 250 247 245 243 243 244 246 248 249 250 250 252 254 256 258 260 261 260 259 257 255 253 253 254 256 259 261 262 263 264 264 265 266 266 266 267 270 273 276
259 261 262 264 265 266 266 268 268 268 268 268 268 267 266 264 263 261 260 259 259 259 260 261 262 263 265 265 264 264 264 265 264 264 263 261 261 260 259 258 257 257 256 255 254 252 250 247 243 241 240 241 243 245 247 248 249 251 253 255 256 257 257 257 257 255 254 252 251 252 254 257 259 262 263 263 263 264 265 266 266 267 268 270 273 275
252 254 255 257 258 259 261 262 263 263 263 263 264 264 264 263 261 260 259 258 257 258 258 259 260 262 264 267 266 264 264 264 264 264 263 261 261 261 260 259 257 257 256 255 254 252 250 247 244 243 243 245 247 248 250 251 252 253 254 255 255 255 255 254 254 253 252 251 251 252 254 257 260 262 263 263 264 264 265 265 266 267 268 270 272 274
248 248 249 250 252 253 255 256 257 257 258 258 259 259 259 259 258 257 256 256 257 257 258 260 261 262 263 265 265 264 263 263 263 263 262 261 261 261 261 259 258 256 256 255 254 253 252 250 250 251 252 254 255 256 256 256 256 256 256 255 254 253 253 252 252 252 252 252 252 254 256 258 260 262 263 263 263 264 264 265 265 267 268 270 271 272
249 248 248 248 249 251 252 253 254 255 256 256 257 257 257 257 257 256 256 256 257 258 259 261 262 263 264 265 265 265 264 264 264 264 263 262 261 261 261 259 257 255 254 253 253 252 252 252 254 256 258 260 261 261 260 259 258 257 256 255 254 253 253 253 254 254 255 256 257 258 260 261 262 262 263 263 263 264 264 265 266 268 270 271 272 272
252 252 252 251 251 252 253 253 254 255 256 257 258 259 260 260 260 259 259 259 260 261 262 264 265 267 268 269 269 268 267 267 266 265 264 264 263 262 261 259 257 255 253 252 252 252 252 253 255 257 259 261 262 262 261 261 260 259 258 257 257 257 257 258 259 260 260 261 262 263 263 263 263 263 263 264 265 266 267 268 270 271 272 272 272 271
255 255 255 255 255 255 256 257 257 257 258 260 262 263 263 264 264 264 263 263 264 265 266 267 268 269 270 271 271 270 270 268 267 267 266 264 263 262 261 260 259 257 255 254 254 254 254 255 257 259 261 262 263 263 263 263 262 262 262 262 262 262 263 264 264 265 266 266 266 266 266 266 266 267 268 269 269 270 271 272 272 273 273 272 272 272
256 257 257 258 258 258 260 261 261 260 260 261 263 264 264 264 263 263 264 264 264 265 266 268 268 269 269 269 269 269 269 268 267 266 265 264 263 262 262 262 261 259 258 258 258 258 258 259 261 263 264 265 266 266 266 266 266 266 266 267 267 268 269 269 270 270 270 270 270 270 270 271 272 274 274 274 274 273 273 273 272 272 272 272 273 275
258 258 260 261 262 262 263 263 262 261 261 262 262 262 261 261 260 259 259 260 261 262 263 264 266 266 266 265 265 265 266 266 265 264 264 264 264 263 263 263 262 262 261 261 261 261 262 263 265 267 268 269 270 271 271 272 272 272 273 273 274 275 275 275 276 276 276 276 276 276 277 278 279 279 278 277 275 273 272 272 271 271 272 273 275 277
255 257 260 262 263 264 263 262 260 260 260 260 260 260 260 259 258 258 257 257 257 258 259 260 261 260 260 260 259 260 262 262 262 263 264 265 265 265 265 264 263 263 264 264 264 264 265 266 268 270 271 272 273 274 275 276 277 278 278 279 279 280 280 280 280 280 280 280 280 280 281 281 281 280 278 276 273 272 271 271 272 273 274 276 277 279
249 251 255 259 261 261 260 258 257 257 257 258 258 259 259 258 258 258 258 257 257 257 257 258 257 257 257 257 257 258 260 261 262 262 263 265 267 268 266 265 265 266 266 267 267 267 268 269 271 272 273 275 276 277 278 279 279 280 280 281 281 281 281 281 281 281 281 281 281 281 281 281 280 278 275 273 272 272 272 273 274 275 277 278 279 280
245 248 251 254 256 257 257 257 256 256 257 258 259 259 259 258 258 259 259 258 258 259 260 260 259 258 259 259 260 260 262 263 263 263 264 266 268 269 268 267 266 267 269 269 269 270 271 272 273 275 276 277 278 279 280 280 281 281 281 281 282 281 281 281 281 281 281 281 281 280 279 278 276 274 272 272 272 273 275 276 277 278 279 279 280 280
246 247 249 252 255 257 258 258 257 257 257 259 259 260 260 260 260 260 260 260 260 261 262 261 261 261 262 263 263 264 265 266 267 266 266 268 268 269 268 268 268 268 270 271 272 273 273 274 276 277 279 280 281 281 281 282 282 282 282 281 281 281 281 281 280 280 279 279 278 278 276 275 273 272 272 273 274 275 277 278 278 279 279 280 281 281
247 248 249 251 254 257 258 258 258 258 258 259 260 261 262 262 262 261 261 262 263 263 262 262 263 264 265 266 266 267 269 269 269 269 269 269 269 269 269 269 270 270 271 272 274 275 276 276 278 279 281 282 282 282 282 282 282 282 281 280 280 279 279 279 278 278 277 276 276 275 274 273 272 272 273 274 276 276 277 278 279 280 280 281 282 282
250 250 251 252 254 256 258 258 258 258 259 260 262 263 264 265 264 264 265 266 266 264 263 264 266 267 267 267 269 270 270 269 269 269 271 270 269 269 269 270 271 272 272 273 275 277 278 278 278 280 281 282 282 281 281 281 280 280 279 279 278 277 277 276 276 275 275 274 274 273 273 272 273 273 274 275 276 278 279 280 281 282 283 283 284 284
252 252 253 253 255 256 258 259 259 259 260 261 263 264 265 266 266 267 268 269 269 267 266 268 269 269 269 269 270 270 270 268 268 269 271 270 269 269 270 271 272 273 273 274 276 277 278 278 279 279 280 280 280 279 279 278 278 277 277 276 276 275 274 274 273 273 273 273 272 272 272 273 273 274 276 277 279 280 282 283 284 285 285 285 285 285
254 254 254 255 256 258 259 260 261 261 262 263 264 265 267 268 269 270 271 271 271 271 271 271 272 272 271 271 270 270 270 269 269 269 270 270 271 271 272 272 273 274 275 276 276 277 278 278 278 278 278 278 278 278 277 276 275 274 274 274 273 272 272 271 272 272 272 271 271 272 272 274 275 277 279 281 282 284 285 286 286 287 286 286 286 285
258 258 258 259 260 261 262 263 264 264 265 265 266 267 269 271 273 274 274 275 275 275 275 275 275 274 274 273 272 271 271 272 272 271 271 270 272 273 274 274 274 275 276 277 277 277 277 277 278 278 277 277 276 276 275 275 274 273 272 272 271 271 271 270 270 270 270 271 271 273 274 276 278 281 283 284 285 286 287 287 287 287 287 286 285 284
264 265 265 266 267 267 267 268 268 268 269 269 270 271 273 275 277 278 279 279 279 278 277 277 276 276 275 274 273 273 273 273 274 274 273 272 272 274 275 275 275 275 276 276 277 277 277 276 277 277 276 276 275 275 274 274 273 273 272 271 271 271 271 270 270 270 270 271 273 274 277 279 281 283 285 286 287 287 287 287 287 286 286 285 284 283
269 270 271 272 273 273 273 273 273 273 273 274 275 276 277 278 280 281 281 282 282 281 280 279 277 276 275 274 274 274 274 274 274 275 275 273 272 273 275 275 274 273 274 274 274 274 274 274 275 275 275 275 275 274 273 273 273 273 272 271 270 270 270 271 271 271 272 273 275 276 278 281 283 284 285 286 286 286 286 285 285 285 284 284 283 281
271 272 273 274 275 276 276 276 276 276 276 276 276 277 277 278 279 280 281 281 282 282 282 281 280 278 277 275 273 272 272 273 273 274 274 272 271 272 273 273 272 272 272 272 272 272 271 271 272 272 272 272 272 272 272 272 272 272 272 271 270 269 269 270 270 271 273 274 276 278 280 282 283 284 285 285 285 284 284 284 283 283 283 282 281 280
271 271 272 273 274 275 276 276 276 276 276 276 275 275 275 275 276 276 278 279 279 280 280 279 279 278 277 277 275 273 272 272 272 271 270 269 270 271 271 271 271 271 270 271 271 270 270 269 270 270 270 269 269 270 270 271 271 271 270 271 271 270 269 269 270 272 274 276 278 279 281 282 283 284 284 284 283 283 283 283 282 282 282 281 280 279
270 270 271 271 272 272 273 273 273 274 273 273 272 271 271 271 271 272 273 274 274 275 275 275 275 275 275 275 275 274 273 272 270 268 266 266 267 268 269 270 270 270 269 269 270 270 269 268 268 268 268 268 268 268 268 269 269 269 269 270 271 271 271 272 273 275 276 278 279 280 282 282 282 283 283 282 282 282 282 282 281 281 280 280 279 278
268 269 269 269 269 270 270 270 271 270 270 270 269 268 267 267 267 268 268 269 270 270 271 271 271 272 272 273 273 273 272 271 269 267 265 265 265 267 268 269 270 270 270 269 269 269 268 268 267 267 267 268 268 267 267 268 268 268 270 271 271 272 272 274 276 278 279 279 281 281 282 282 282 281 281 281 281 281 281 281 280 280 279 278 278 277
265 266 266 266 267 267 268 268 268 267 267 267 266 265 264 264 264 265 265 266 267 269 269 270 270 271 271 271 271 271 271 271 269 268 267 266 266 267 268 269 270 270 270 269 268 267 267 267 267 266 266 267 267 267 267 267 268 269 270 272 273 274 275 276 278 279 280 281 282 282 282 282 281 281 281 280 280 280 280 280 279 279 278 277 277 277
262 262 262 263 264 264 265 265 265 265 265 264 263 263 262 262 262 263 264 265 266 267 268 269 270 271 271 271 270 270 271 270 270 269 268 267 267 267 268 268 268 268 268 268 267 266 265 266 266 266 265 265 266 267 267 268 269 270 271 273 274 276 277 277 278 279 281 281 281 281 281 281 281 281 281 281 281 280 280 279 279 279 278 277 277 278
260 260 260 261 261 262 262 263 263 263 263 262 262 261 261 261 261 262 263 264 265 266 267 268 269 270 270 270 270 270 270 269 269 269 268 267 267 267 266 266 266 266 266 266 266 265 265 265 266 266 266 266 267 267 268 269 270 271 272 274 275 277 278 279 279 280 281 281 281 281 281 282 282 282 282 282 282 281 281 280 280 279 279 279 278 279
259 259 259 260 260 260 260 260 261 262 262 262 262 262 262 261 261 262 262 263 264 265 266 267 268 269 269 269 269 269 269 269 269 268 268 267 267 266 266 265 265 265 265 265 265 265 266 266 266 267 268 269 269 269 270 271 272 273 274 275 277 279 280 280 281 281 281 281 282 282 283 283 283 283 283 283 282 282 282 281 280 280 280 280 280 280
259 259 259 259 259 259 259 259 259 260 261 262 262 262 262 262 262 262 262 262 263 264 266 267 268 269 269 269 269 269 270 269 269 269 268 268 267 266 266 265 265 265 265 265 265 266 267 267 267 268 269 270 270 271 271 273 274 275 276 276 278 279 280 280 281 281 281 281 282 283 283 284 284 284 283 283 283 282 282 281 281 281 281 281 281 282
260 260 260 260 260 259 259 259 259 260 260 261 261 262 262 263 263 262 262 262 263 264 265 266 267 268 268 269 269 269 270 270 270 269 269 269 268 267 267 266 266 266 266 266 266 267 267 268 268 269 270 271 272 272 273 274 275 276 277 277 278 279 279 280 280 281 281 281 282 283 283 284 284 284 283 283 283 282 282 282 282 282 282 283 283 283
263 262 262 262 261 261 261 261 261 261 261 261 261 261 262 262 262 262 262 262 263 264 264 265 266 267 267 268 269 269 269 269 269 270 270 270 269 269 268 268 267 267 267 267 267 267 268 268 269 270 271 271 272 273 274 275 276 276 277 278 278 279 279 279 280 280 281 281 281 282 283 283 283 283 283 283 283 282 282 283 283 283 283 284 284 284
265 265 264 264 263 263 263 263 263 262 262 262 262 262 262 262 262 262 262 263 263 264 264 265 265 266 267 267 267 268 268 268 268 269 269 269 269 269 269 268 268 268 268 267 267 268 268 268 269 270 271 271 272 273 274 275 276 277 277 278 278 278 278 279 279 280 280 280 281 281 282 282 283 283 283 283 282 282 282 283 283 283 284 284 284 285
267 267 267 266 266 265 265 265 264 264 263 263 263 263 263 262 262 262 263 263 264 264 265 265 265 266 266 266 266 266 266 266 267 267 267 267 268 268 268 268 268 267 267 267 267 267 268 268 269 269 270 271 272 273 274 275 276 277 277 277 278 278 278 278 279 279 280 280 281 282 282 282 282 282 282 282 282 282 282 282 282 283 283 284 284 284
270 269 269 269 269 268 267 267 266 265 265 264 264 263 263 263 263 263 264 264 264 264 265 265 265 265 265 265 265 265 265 265 265 265 265 266 266 267 267 267 266 266 266 266 266 267 267 268 268 269 270 271 272 273 274 275 275 276 277 277 277 278 278 278 279 279 280 281 282 282 282 283 283 283 282 282 282 281 281 282 282 282 283 283 283 284
271 272 272 272 271 271 270 269 269 267 266 266 265 265 265 265 265 265 265 265 265 265 265 265 265 265 265 265 264 264 264 264 264 264 264 264 265 265 265 265 265 265 265 266 266 267 267 268 269 270 270 271 272 273 274 275 275 276 276 277 277 278 278 278 279 280 281 282 282 283 283 283 283 283 283 282 282 282 282 282 282 282 282 283 283 283
272 272 272 272 272 272 272 271 270 269 268 268 267 267 266 266 266 266 266 266 266 265 265 265 265 264 264 264 264 263 263 263 263 263 263 264 264 264 264 264 264 264 265 266 267 267 268 269 270 271 272 272 274 275 275 276 276 276 276 276 277 278 278 279 280 281 282 282 283 283 284 283 283 283 283 282 282 282 282 282 282 282 282 283 283 283
Height
3043 3045 3048 3049 3048 3048 3050 3052 3054 3056 3058 3059 3059 3060 3061 3062 3063 3063 3064 3065 3065 3066 3067 3068 3069 3070 3070 3071 3071 3072 3072 3073 3074 3074 3074 3074 3075 3075 3075 3076 3076 3077 3077 3078 3078 3079 3079 3080 3080 3080 3081 3081 3082 3082 3081 3081 3082 3082 3082 3082 3082 3082 3082 3083 3083 3083 3084 3084 3083 3083 3083 3084 3084 3084 3085 3085 3085 3085 3085 3085 3084 3084 3084 3084 3084 3084
3040 3042 3045 3045 3045 3045 3046 3048 3050 3052 3053 3055 3055 3057 3057 3058 3059 3060 3061 3062 3062 3063 3064 3065 3066 3066 3067 3067 3067 3068 3069 3070 3070 3071 3071 3071 3072 3072 3073 3073 3073 3074 3074 3074 3075 3075 3076 3077 3077 3077 3078 3079 3079 3080 3080 3079 3079 3079 3079 3080 3080 3080 3080 3080 3080 3081 3081 3080 3080 3080 3080 3080 3081 3081 3082 3082 3082 3082 3082 3082 3082 3081 3081 3081 3081 3081
3037 3039 3040 3041 3042 3043 3043 3045 3047 3049 3050 3051 3052 3053 3054 3055 3056 3056 3057 3058 3059 3060 3061 3061 3062 3062 3062 3063 3063 3064 3065 3066 3067 3068 3068 3069 3069 3069 3070 3070 3070 3070 3070 3071 3071 3072 3073 3074 3075 3075 3075 3076 3076 3077 3077 3077 3076 3076 3076 3077 3077 3077 3077 3078 3078 3078 3078 3077 3077 3077 3078 3078 3078 3078 3079 3079 3079 3079 3079 3079 3079 3078 3078 3078 3078 3078
3035 3036 3037 3038 3040 3040 3041 3043 3045 3046 3047 3048 3049 3050 3051 3052 3053 3053 3054 3054 3055 3056 3057 3057 3058 3058 3059 3059 3060 3061 3062 3063 3063 3064 3065 3066 3066 3067 3067 3067 3067 3067 3068 3068 3069 3069 3070 3071 3072 3072 3072 3073 3073 3073 3073 3073 3073 3073 3073 3073 3074 3074 3075 3075 3075 3075 3075 3075 3075 3075 3076 3075 3075 3075 3075 3076 3076 3076 3076 3076 3076 3075 3075 3075 3075 3075
3033 3034 3035 3036 3037 3038 3039 3040 3042 3043 3044 3045 3045 3046 3048 3049 3050 3050 3050 3051 3052 3052 3053 3054 3055 3055 3055 3056 3057 3058 3059 3059 3060 3060 3061 3062 3063 3064 3065 3065 3065 3065 3065 3066 3066 3066 3067 3068 3068 3069 3069 3069 3069 3070 3070 3070 3070 3070 3070 3070 3070 3071 3071 3071 3072 3071 3071 3072 3073 3074 3074 3073 3072 3072 3072 3073 3073 3073 3073 3073 3073 3072 3072 3072 3072 3072
3031 3032 3033 3034 3035 3035 3036 3038 3039 3040 3040 3042 3043 3044 3045 3046 3047 3047 3048 3049 3049 3049 3050 3050 3051 3051 3052 3053 3054 3055 3055 3056 3057 3057 3058 3059 3059 3060 3060 3061 3062 3063 3063 3063 3064 3064 3064 3064 3065 3065 3065 3065 3065 3065 3065 3065 3065 3065 3066 3067 3068 3068 3068 3068 3068 3068 3068 3069 3070 3071 3071 3070 3069 3069 3069 3070 3070 3070 3070 3070 3069 3069 3069 3069 3069 3069
3029 3030 3030 3031 3032 3033 3034 3035 3036 3037 3038 3039 3040 3041 3042 3043 3044 3045 3045 3046 3046 3046 3047 3047 3048 3049 3049 3050 3051 3051 3052 3053 3054 3054 3055 3055 3055 3056 3056 3057 3058 3059 3060 3060 3060 3061 3061 3061 3061 3061 3061 3062 3062 3062 3062 3061 3061 3062 3063 3064 3065 3065 3065 3065 3065 3065 3065 3066 3067 3067 3067 3067 3066 3066 3066 3066 3067 3067 3066 3066 3066 3066 3066 3066 3066 3066
3026 3027 3028 3029 3030 3030 3031 3033 3034 3035 3036 3037 3038 3039 3040 3040 3041 3042 3042 3043 3043 3044 3044 3045 3045 3046 3046 3047 3047 3048 3049 3050 3050 3051 3051 3052 3052 3053 3053 3054 3054 3055 3055 3056 3057 3057 3058 3058 3059 3059 3059 3059 3058 3059 3059 3059 3059 3059 3060 3061 3062 3061 3061 3061 3062 3062 3062 3063 3063 3064 3064 3064 3063 3063 3063 3063 3063 3063 3063 3063 3063 3063 3063 3063 3063 3062
3023 3024 3025 3026 3027 3028 3029 3030 3031 3033 3034 3035 3036 3037 3037 3038 3038 3039 3040 3040 3040 3041 3042 3042 3043 3043 3044 3044 3044 3045 3045 3046 3047 3047 3048 3048 3049 3049 3050 3050 3051 3051 3052 3052 3053 3053 3054 3055 3055 3055 3055 3055 3055 3056 3057 3057 3056 3056 3057 3058 3058 3058 3058 3058 3058 3059 3059 3060 3060 3061 3061 3060 3060 3059 3059 3060 3060 3060 3060 3060 3060 3060 3060 3060 3059 3059
3021 3022 3023 3024 3025 3026 3027 3028 3029 3030 3032 3033 3034 3034 3035 3035 3035 3036 3037 3037 3038 3038 3039 3040 3040 3040 3041 3041 3041 3042 3042 3043 3043 3044 3044 3045 3045 3046 3047 3047 3048 3048 3048 3049 3049 3049 3050 3050 3051 3052 3052 3052 3053 3054 3055 3055 3054 3054 3055 3055 3055 3055 3055 3055 3055 3055 3056 3056 3057 3057 3057 3056 3056 3056 3056 3056 3056 3057 3056 3056 3056 3056 3056 3056 3056 3056
3020 3021 3022 3022 3023 3024 3025 3026 3027 3028 3029 3030 3030 3031 3032 3032 3033 3033 3034 3034 3035 3035 3036 3037 3037 3037 3038 3038 3039 3039 3039 3040 3040 3040 3041 3042 3042 3043 3044 3044 3045 3045 3045 3045 3045 3046 3047 3047 3047 3048 3048 3049 3050 3052 3052 3052 3052 3052 3052 3053 3053 3052 3052 3052 3052 3052 3053 3053 3053 3053 3053 3053 3053 3053 3053 3053 3053 3053 3053 3053 3053 3053 3053 3053 3053 3052
3018 3019 3020 3020 3021 3022 3023 3024 3025 3025 3026 3027 3028 3028 3029 3030 3030 3031 3031 3032 3032 3033 3033 3034 3034 3035 3035 3035 3035 3036 3036 3037 3037 3038 3038 3039 3040 3040 3041 3041 3041 3041 3042 3042 3043 3043 3043 3044 3044 3045 3045 3046 3048 3049 3050 3049 3049 3049 3049 3050 3050 3050 3050 3050 3050 3050 3050 3050 3050 3050 3050 3050 3050 3050 3050 3050 3050 3050 3050 3050 3050 3050 3050 3050 3049 3049
3016 3017 3018 3019 3020 3020 3021 3022 3022 3023 3024 3025 3025 3025 3026 3027 3028 3028 3028 3029 3029 3030 3030 3031 3031 3032 3032 3033 3033 3033 3034 3034 3034 3035 3035 3036 3036 3037 3038 3038 3038 3038 3039 3039 3040 3040 3040 3041 3041 3041 3042 3044 3045 3046 3046 3046 3046 3046 3046 3046 3046 3047 3047 3047 3047 3046 3046 3046 3046 3046 3046 3046 3046 3046 3047 3047 3047 3046 3046 3046 3046 3046 3046 3046 3045 3045
3015 3015 3016 3017 3017 3018 3019 3020 3020 3020 3021 3022 3023 3023 3023 3024 3025 3025 3026 3026 3026 3027 3028 3028 3028 3029 3030 3030 3030 3030 3031 3031 3031 3032 3032 3033 3033 3034 3035 3035 3035 3035 3036 3036 3037 3037 3037 3038 3039 3039 3040 3041 3042 3043 3043 3042 3042 3042 3042 3043 3043 3043 3044 3044 3043 3043 3043 3043 3043 3043 3043 3043 3043 3043 3043 3043 3043 3043 3043 3043 3043 3043 3042 3042 3042 3042
3013 3014 3014 3015 3015 3016 3016 3017 3018 3018 3019 3020 3020 3020 3021 3021 3022 3023 3023 3024 3024 3025 3025 3025 3026 3026 3027 3027 3028 3028 3028 3028 3029 3029 3030 3030 3030 3031 3031 3032 3032 3032 3033 3034 3034 3034 3035 3035 3036 3036 3037 3038 3039 3039 3039 3039 3039 3039 3039 3039 3039 3040 3040 3040 3040 3039 3039 3040 3040 3040 3040 3040 3040 3040 3040 3040 3040 3040 3039 3039 3039 3039 3039 3039 3039 3039
3010 3011 3012 3012 3013 3014 3015 3015 3015 3016 3016 3017 3018 3018 3019 3019 3019 3020 3021 3021 3021 3022 3023 3023 3023 3024 3024 3025 3025 3025 3025 3026 3026 3026 3027 3027 3027 3028 3029 3029 3029 3030 3030 3031 3031 3031 3031 3032 3033 3033 3034 3034 3034 3035 3035 3035 3035 3035 3035 3035 3035 3036 3036 3036 3035 3036 3036 3036 3036 3036 3036 3036 3036 3036 3036 3036 3036 3036 3036 3036 3036 3036 3036 3035 3035 3036
3008 3009 3010 3010 3011 3012 3012 3013 3013 3014 3014 3015 3015 3016 3016 3016 3017 3018 3018 3018 3019 3019 3020 3020 3020 3021 3021 3022 3022 3023 3023 3023 3023 3023 3024 3024 3025 3025 3026 3026 3026 3026 3027 3028 3028 3028 3029 3029 3029 3029 3030 3030 3030 3030 3031 3031 3031 3031 3032 3032 3032 3032 3032 3032 3032 3032 3032 3033 3033 3033 3033 3033 3033 3033 3033 3033 3033 3033 3033 3033 3033 3033 3032 3032 3033 3033
3005 3006 3007 3008 3008 3009 3010 3010 3011 3011 3012 3012 3013 3013 3014 3014 3015 3015 3015 3016 3016 3017 3017 3017 3018 3018 3019 3019 3019 3020 3020 3021 3020 3020 3021 3021 3022 3022 3023 3024 3024 3024 3024 3025 3025 3025 3026 3026 3026 3026 3026 3026 3027 3027 3027 3028 3028 3028 3028 3028 3028 3028 3028 3028 3028 3029 3029 3029 3029 3029 3029 3029 3030 3030 3030 3030 3030 3030 3030 3030 3030 3030 3029 3030 3030 3031
3002 3003 3004 3005 3005 3006 3007 3008 3008 3008 3009 3009 3010 3010 3011 3012 3012 3013 3013 3014 3014 3014 3015 3015 3015 3015 3016 3016 3016 3017 3018 3018 3018 3017 3018 3019 3019 3020 3020 3021 3021 3021 3021 3022 3022 3023 3023 3023 3023 3024 3024 3024 3025 3025 3025 3025 3025 3025 3025 3025 3025 3025 3025 3025 3025 3025 3025 3025 3026 3026 3026 3026 3027 3027 3027 3027 3027 3027 3027 3026 3026 3026 3026 3027 3027 3028
3000 3000 3001 3002 3003 3003 3004 3005 3005 3005 3006 3006 3007 3008 3008 3009 3010 3010 3011 3011 3011 3012 3012 3012 3013 3013 3013 3014 3014 3014 3015 3015 3015 3015 3015 3016 3016 3017 3017 3018 3018 3018 3019 3019 3019 3020 3020 3020 3020 3021 3021 3021 3021 3022 3022 3022 3022 3022 3022 3022 3022 3022 3022 3022 3022 3022 3023 3023 3023 3023 3024 3024 3024 3024 3024 3024 3024 3024 3024 3024 3023 3023 3024 3024 3025 3025
2997 2998 2998 2999 3000 3000 3001 3001 3002 3003 3004 3004 3004 3005 3005 3005 3006 3007 3008 3008 3009 3009 3010 3010 3010 3010 3011 3011 3011 3011 3012 3013 3013 3013 3013 3014 3014 3014 3015 3015 3016 3016 3015 3016 3016 3017 3017 3017 3017 3017 3018 3018 3018 3018 3019 3019 3019 3019 3019 3019 3019 3019 3020 3020 3020 3020 3020 3020 3020 3021 3021 3021 3022 3022 3022 3021 3021 3021 3021 3021 3021 3021 3021 3022 3022 3022
2995 2995 2996 2997 2998 2998 2998 2998 2999 3000 3001 3001 3001 3002 3002 3003 3004 3004 3005 3005 3006 3006 3007 3007 3007 3008 3008 3009 3009 3009 3010 3011 3011 3010 3010 3011 3012 3012 3012 3014 3014 3013 3013 3013 3014 3014 3015 3015 3014 3015 3015 3015 3015 3016 3016 3016 3016 3016 3016 3017 3017 3017 3017 3017 3017 3018 3018 3018 3018 3019 3019 3019 3019 3020 3019 3019 3019 3019 3019 3018 3018 3019 3019 3019 3019 3019
2993 2994 2994 2995 2996 2996 2996 2996 2997 2998 2998 2999 2999 3000 3000 3001 3002 3002 3002 3003 3004 3004 3004 3005 3005 3005 3006 3006 3007 3007 3007 3008 3008 3008 3009 3009 3009 3009 3010 3011 3012 3011 3010 3011 3012 3013 3013 3012 3012 3013 3013 3014 3014 3014 3014 3014 3015 3015 3015 3015 3015 3015 3015 3015 3015 3015 3015 3016 3016 3016 3017 3017 3017 3017 3017 3017 3016 3016 3016 3016 3016 3016 3016 3015 3015 3015
2991 2992 2993 2993 2994 2994 2995 2995 2995 2996 2997 2997 2998 2998 2999 2999 3000 3000 3000 3001 3001 3002 3002 3002 3003 3004 3004 3004 3005 3005 3005 3005 3006 3006 3007 3007 3007 3007 3008 3009 3009 3009 3008 3009 3010 3011 3011 3011 3011 3011 3012 3012 3013 3013 3013 3013 3013 3013 3013 3013 3013 3013 3013 3013 3013 3013 3014 3014 3014 3014 3014 3015 3015 3014 3014 3014 3014 3013 3013 3013 3013 3013 3012 3012 3012 3012
2990 2991 2991 2992 2992 2993 2993 2994 2994 2995 2995 2995 2996 2996 2997 2998 2998 2998 2999 2999 3000 3000 3000 3001 3001 3002 3002 3002 3003 3003 3003 3003 3004 3005 3005 3005 3005 3005 3006 3007 3007 3007 3007 3007 3008 3009 3010 3009 3010 3010 3011 3011 3011 3011 3011 3011 3011 3011 3011 3011 3011 3011 3011 3011 3011 3011 3011 3011 3011 3011 3011 3011 3011 3011 3011 3011 3010 3010 3010 3010 3010 3009 3009 3009 3009 3009
2989 2990 2990 2990 2991 2991 2992 2992 2992 2993 2993 2994 2994 2995 2995 2996 2996 2997 2997 2997 2998 2998 2999 3000 3000 3000 3000 3001 3001 3001 3001 3002 3003 3003 3003 3004 3004 3004 3004 3005 3006 3006 3005 3005 3006 3007 3008 3008 3008 3008 3009 3009 3009 3009 3009 3009 3009 3009 3009 3009 3008 3008 3008 3008 3008 3008 3008 3008 3008 3008 3008 3008 3008 3008 3008 3007 3007 3007 3007 3006 3006 3006 3006 3006 3007 3007
2987 2988 2988 2989 2989 2990 2990 2990 2990 2991 2991 2992 2992 2993 2993 2994 2995 2995 2995 2995 2996 2997 2998 2998 2997 2997 2998 2999 3000 2999 2999 3000 3001 3001 3001 3002 3002 3002 3002 3003 3004 3004 3004 3003 3004 3005 3006 3005 3005 3005 3006 3006 3006 3006 3006 3006 3006 3006 3005 3005 3005 3005 3005 3005 3005 3005 3005 3005 3005 3005 3005 3005 3005 3005 3005 3004 3004 3004 3004 3003 3003 3004 3004 3004 3005 3005
2985 2986 2986 2987 2987 2988 2988 2989 2989 2989 2990 2990 2990 2991 2991 2992 2992 2993 2992 2993 2994 2995 2995 2995 2995 2995 2996 2997 2997 2997 2997 2998 2998 2999 2999 3000 3000 3000 3000 3001 3002 3002 3001 3001 3001 3002 3003 3003 3002 3002 3003 3003 3003 3003 3003 3003 3003 3003 3003 3003 3002 3002 3002 3002 3002 3002 3002 3002 3002 3002 3002 3002 3002 3001 3001 3001 3001 3000 3000 3001 3001 3001 3002 3002 3002 3002
2983 2984 2984 2985 2985 2986 2986 2987 2987 2987 2988 2988 2989 2989 2989 2990 2990 2990 2990 2990 2992 2993 2993 2992 2992 2993 2994 2995 2995 2995 2995 2996 2996 2996 2997 2998 2998 2997 2997 2998 2999 3000 2999 2999 2999 2999 3000 3000 3000 3000 3000 3000 3000 3000 3000 3000 3000 3000 3000 3000 3000 3000 3000 3000 3000 3000 3000 3000 3000 3000 2999 2999 2999 2998 2998 2998 2998 2998 2998 2999 2999 2999 3000 3000 3000 3000
2981 2982 2983 2983 2984 2984 2985 2985 2985 2985 2986 2986 2987 2987 2987 2987 2988 2988 2988 2989 2990 2991 2990 2990 2990 2991 2992 2992 2993 2993 2993 2993 2993 2994 2995 2996 2995 2994 2995 2996 2997 2997 2996 2996 2997 2996 2996 2996 2997 2997 2997 2997 2997 2997 2997 2997 2997 2997 2997 2997 2997 2997 2997 2997 2997 2997 2997 2997 2997 2997 2996 2996 2996 2995 2995 2995 2995 2996 2996 2996 2996 2997 2997 2997 2997 2997
2979 2980 2980 2981 2981 2982 2983 2983 2983 2984 2984 2984 2985 2985 2985 2985 2986 2986 2986 2987 2988 2988 2988 2988 2989 2989 2990 2990 2991 2991 2990 2990 2991 2992 2994 2994 2992 2991 2992 2994 2994 2994 2993 2994 2995 2994 2994 2993 2994 2995 2995 2995 2994 2994 2994 2995 2995 2995 2995 2995 2995 2995 2995 2995 2995 2995 2995 2994 2994 2994 2994 2993 2993 2993 2993 2993 2993 2993 2994 2994 2994 2994 2995 2995 2995 2995
2977 2978 2979 2979 2980 2980 2980 2981 2981 2981 2982 2982 2983 2983 2983 2984 2984 2985 2985 2985 2986 2986 2986 2986 2987 2987 2988 2988 2989 2989 2988 2988 2989 2990 2992 2991 2990 2989 2990 2991 2992 2991 2990 2991 2992 2992 2991 2991 2991 2992 2993 2993 2992 2991 2992 2992 2993 2993 2992 2992 2992 2992 2992 2992 2992 2992 2992 2991 2991 2991 2991 2991 2991 2991 2991 2991 2991 2991 2991 2991 2992 2992 2992 2993 2993 2993
2975 2976 2976 2977 2978 2978 2979 2979 2979 2980 2980 2980 2981 2981 2982 2982 2982 2983 2983 2983 2984 2984 2984 2984 2985 2985 2985 2986 2986 2986 2986 2986 2987 2988 2989 2989 2988 2986 2987 2988 2989 2988 2988 2988 2989 2989 2989 2989 2989 2989 2990 2990 2990 2990 2990 2990 2990 2990 2990 2990 2990 2990 2989 2990 2990 2989 2989 2989 2989 2989 2989 2989 2989 2989 2989 2989 2989 2989 2989 2989 2990 2990 2990 2990 2990 2990
2973 2974 2974 2975 2975 2976 2976 2977 2977 2978 2978 2979 2979 2979 2980 2980 2980 2980 2981 2981 2981 2982 2982 2983 2983 2983 2983 2984 2984 2984 2984 2984 2985 2985 2986 2986 2985 2984 2984 2985 2986 2986 2986 2986 2986 2986 2987 2987 2986 2987 2987 2987 2987 2988 2988 2988 2988 2988 2988 2988 2987 2987 2987 2987 2987 2987 2986 2986 2986 2986 2986 2986 2986 2986 2987 2987 2987 2987 2987 2987 2987 2987 2988 2988 2988 2988
2971 2972 2972 2973 2973 2974 2974 2975 2975 2975 2976 2976 2977 2977 2977 2978 2978 2978 2979 2979 2980 2980 2980 2981 2981 2981 2981 2982 2982 2982 2982 2982 2982 2983 2984 2984 2983 2982 2982 2983 2984 2984 2984 2984 2984 2984 2985 2985 2985 2985 2985 2985 2985 2985 2985 2986 2985 2985 2985 2985 2985 2985 2985 2984 2984 2984 2984 2984 2984 2984 2984 2985 2985 2985 2985 2985 2985 2985 2985 2985 2985 2985 2985 2985 2985 2985
2969 2970 2970 2970 2971 2971 2972 2972 2973 2973 2974 2974 2975 2975 2975 2975 2976 2976 2977 2977 2977 2978 2978 2978 2979 2979 2979 2980 2980 2980 2980 2980 2981 2981 2982 2981 2981 2981 2981 2981 2981 2982 2982 2982 2982 2982 2982 2983 2982 2983 2983 2983 2983 2982 2983 2983 2983 2983 2983 2982 2982 2983 2982 2982 2982 2982 2982 2982 2982 2982 2982 2983 2983 2983 2982 2982 2983 2983 2983 2983 2983 2983 2983 2983 2983 2983
2967 2968 2968 2969 2969 2970 2970 2970 2971 2971 2972 2972 2972 2973 2973 2974 2974 2974 2975 2975 2975 2975 2976 2976 2976 2977 2977 2977 2978 2978 2978 2978 2979 2979 2980 2979 2979 2979 2979 2979 2979 2980 2980 2980 2980 2980 2980 2980 2980 2980 2980 2981 2981 2980 2980 2980 2981 2981 2980 2980 2980 2980 2980 2980 2980 2980 2980 2980 2980 2980 2980 2980 2980 2980 2980 2980 2980 2980 2980 2980 2980 2980 2980 2980 2980 2980
2965 2966 2966 2967 2967 2968 2968 2968 2969 2969 2970 2970 2970 2971 2971 2971 2972 2972 2972 2973 2973 2973 2974 2974 2974 2975 2975 2975 2975 2976 2976 2976 2977 2977 2977 2977 2977 2977 2977 2977 2977 2978 2978 2978 2978 2977 2978 2978 2978 2978 2978 2978 2979 2978 2978 2978 2978 2978 2978 2978 2978 2978 2978 2978 2978 2978 2978 2978 2978 2978 2978 2978 2978 2978 2978 2978 2978 2978 2978 2978 2978 2978 2978 2978 2977 2977
2964 2964 2965 2965 2965 2966 2966 2966 2967 2967 2968 2968 2969 2969 2969 2969 2970 2970 2970 2971 2971 2971 2972 2972 2972 2972 2973 2973 2973 2974 2974 2974 2974 2975 2975 2975 2975 2975 2975 2975 2975 2975 2976 2976 2976 2975 2975 2976 2976 2976 2976 2976 2976 2976 2976 2976 2976 2976 2975 2975 2976 2976 2976 2976 2976 2976 2976 2976 2976 2976 2976 2976 2976 2976 2976 2976 2976 2976 2976 2976 2976 2975 2975 2975 2975 2974
2962 2962 2963 2963 2964 2964 2965 2965 2965 2965 2966 2966 2966 2967 2967 2967 2968 2968 2968 2969 2969 2969 2970 2970 2970 2970 2970 2971 2971 2971 2971 2972 2972 2972 2972 2973 2973 2973 2973 2973 2973 2973 2974 2974 2974 2974 2974 2974 2974 2974 2974 2974 2974 2974 2974 2974 2974 2974 2974 2974 2973 2973 2974 2974 2974 2974 2974 2974 2974 2974 2974 2974 2974 2974 2974 2974 2974 2974 2974 2974 2973 2973 2972 2972 2972 2971
2960 2960 2961 2961 2962 2962 2963 2963 2963 2964 2964 2965 2965 2965 2965 2965 2966 2966 2966 2967 2967 2967 2967 2968 2968 2968 2968 2969 2969 2969 2970 2970 2970 2970 2970 2970 2970 2970 2971 2971 2971 2971 2971 2972 2972 2972 2972 2972 2972 2972 2972 2972 2972 2972 2971 2971 2971 2972 2972 2971 2971 2971 2972 2972 2972 2972 2971 2971 2971 2971 2971 2971 2971 2972 2972 2972 2972 2971 2971 2971 2970 2970 2970 2969 2969 2968
2958 2958 2959 2959 2960 2960 2961 2961 2961 2962 2962 2962 2963 2963 2963 2964 2964 2964 2965 2965 2965 2965 2965 2966 2966 2966 2966 2966 2967 2967 2968 2968 2968 2968 2968 2968 2968 2968 2969 2969 2969 2969 2970 2970 2970 2970 2970 2970 2970 2970 2970 2970 2970 2970 2970 2969 2970 2970 2970 2970 2969 2969 2970 2970 2970 2970 2970 2969 2969 2969 2969 2969 2969 2969 2969 2969 2969 2969 2968 2968 2968 2967 2966 2966 2966 2965
2956 2956 2957 2957 2958 2958 2959 2959 2960 2960 2960 2960 2961 2961 2961 2962 2962 2962 2962 2963 2963 2963 2964 2964 2964 2964 2964 2965 2965 2965 2965 2965 2965 2966 2966 2966 2966 2966 2966 2966 2966 2967 2967 2967 2967 2967 2967 2968 2968 2967 2967 2967 2968 2968 2967 2967 2967 2968 2968 2968 2968 2967 2967 2967 2967 2968 2967 2967 2966 2966 2967 2967 2967 2967 2967 2967 2966 2966 2965 2965 2965 2964 2964 2963 2962 2962
2954 2955 2955 2955 2956 2956 2956 2957 2957 2958 2958 2958 2959 2959 2959 2960 2960 2960 2960 2960 2961 2961 2961 2962 2962 2962 2962 2962 2963 2963 2964 2963 2963 2963 2964 2964 2964 2964 2964 2964 2964 2964 2965 2965 2965 2965 2965 2965 2965 2965 2965 2965 2965 2965 2965 2965 2965 2965 2966 2966 2966 2966 2965 2965 2965 2965 2965 2964 2964 2964 2964 2964 2964 2964 2964 2964 2964 2963 2963 2962 2962 2961 2960 2960 2959 2959
2952 2952 2953 2953 2954 2954 2954 2954 2955 2955 2956 2956 2956 2956 2957 2957 2958 2958 2958 2958 2958 2959 2959 2959 2960 2960 2960 2960 2960 2961 2961 2961 2961 2961 2961 2961 2961 2962 2962 2962 2962 2962 2962 2962 2962 2962 2962 2962 2963 2963 2963 2963 2963 2963 2963 2963 2964 2964 2964 2964 2964 2964 2963 2963 2963 2963 2962 2962 2962 2962 2962 2962 2961 2961 2961 2961 2961 2961 2960 2960 2959 2958 2957 2957 2956 2955
2950 2950 2950 2951 2951 2951 2952 2952 2952 2953 2953 2953 2954 2954 2955 2955 2955 2955 2955 2956 2956 2956 2956 2957 2957 2958 2957 2958 2958 2959 2959 2959 2959 2959 2959 2959 2959 2959 2959 2959 2959 2960 2960 2960 2960 2960 2960 2960 2960 2960 2961 2961 2961 2961 2961 2961 2961 2961 2961 2961 2961 2961 2961 2960 2960 2960 2960 2960 2960 2960 2959 2959 2959 2959 2959 2959 2958 2958 2957 2957 2956 2955 2955 2954 2953 2952
2948 2948 2948 2949 2949 2949 2949 2950 2950 2950 2950 2951 2951 2951 2952 2952 2952 2953 2953 2953 2953 2954 2954 2954 2955 2955 2955 2955 2956 2956 2956 2956 2956 2956 2957 2957 2957 2957 2957 2957 2957 2957 2957 2957 2957 2957 2958 2958 2958 2958 2959 2959 2959 2959 2959 2959 2959 2959 2959 2959 2959 2959 2958 2958 2958 2958 2958 2958 2957 2957 2957 2957 2956 2956 2956 2956 2956 2955 2955 2955 2954 2953 2952 2951 2950 2949
2945 2946 2946 2946 2946 2947 2947 2947 2948 2948 2948 2948 2949 2949 2949 2950 2950 2950 2950 2950 2951 2951 2951 2951 2952 2952 2952 2953 2953 2953 2954 2954 2954 2954 2954 2954 2955 2955 2955 2955 2955 2955 2955 2955 2955 2955 2955 2956 2956 2956 2956 2956 2956 2956 2956 2957 2957 2957 2956 2956 2956 2956 2956 2956 2956 2956 2955 2955 2955 2955 2955 2954 2954 2954 2953 2953 2953 2953 2953 2952 2951 2950 2949 2948 2948 2947
2944 2944 2944 2944 2944 2945 2945 2945 2945 2945 2945 2946 2946 2946 2946 2947 2947 2947 2947 2948 2948 2948 2949 2949 2949 2950 2950 2950 2950 2951 2951 2951 2951 2951 2952 2952 2952 2952 2953 2953 2953 2953 2953 2953 2953 2953 2954 2954 2954 2954 2954 2955 2954 2954 2954 2955 2955 2955 2954 2954 2954 2954 2954 2953 2953 2953 2953 2953 2952 2952 2952 2952 2951 2951 2951 2950 2950 2950 2950 2950 2949 2948 2947 2946 2945 2944
2942 2942 2942 2942 2942 2942 2943 2943 2943 2943 2943 2943 2944 2944 2944 2944 2945 2945 2945 2945 2945 2946 2946 2946 2946 2947 2947 2947 2948 2948 2948 2949 2949 2949 2949 2950 2950 2950 2950 2950 2950 2951 2951 2951 2951 2951 2951 2952 2952 2952 2952 2952 2952 2952 2952 2952 2952 2952 2952 2951 2951 2951 2951 2951 2951 2951 2951 2950 2950 2950 2949 2949 2949 2948 2948 2947 2947 2947 2947 2947 2946 2945 2945 2943 2942 2941
2940 2940 2940 2940 2940 2940 2941 2941 2941 2941 2941 2941 2941 2941 2942 2942 2942 2942 2942 2943 2943 2943 2944 2944 2944 2945 2945 2945 2945 2946 2946 2946 2946 2947 2947 2948 2948 2948 2948 2948 2948 2949 2949 2949 2949 2949 2950 2950 2950 2950 2950 2950 2950 2950 2950 2950 2950 2950 2949 2949 2949 2949 2949 2948 2948 2948 2948 2948 2948 2947 2947 2946 2946 2945 2945 2945 2944 2945 2945 2945 2944 2943 2942 2941 2940 2939